Wind_Speed
21 24 25 24 24 23 22 21 20 18 19 17 16 15 16 16 17 17 17 17 18 18 18 18 18 18 18 18 18 18 18 16 16 15 15 14 14 13 13 13 12 11 11 11 11 11 11 10 9 9 10 11 12 12 12 13 13 12 11 12 13 13 11 10 9 10 9 10 9 8 8 7 8 8 7 6 8 10 9 9 10 9 8 8 7
27 27 26 25 24 24 22 21 20 19 19 17 16 15 16 16 17 17 17 18 18 18 18 18 18 17 17 17 17 17 17 15 15 15 14 14 14 13 12 12 11 10 10 10 11 11 10 9 8 8 10 12 13 13 13 13 12 12 12 13 13 12 10 10 10 9 9 9 8 8 7 6 7 8 8 7 8 8 7 8 8 7 7 6 6
29 28 26 25 25 23 22 21 21 20 19 17 16 16 16 16 16 17 17 18 18 18 18 18 17 17 16 16 16 16 16 15 14 14 13 13 13 12 11 10 10 9 9 11 11 11 10 9 7 8 10 12 13 13 13 13 14 14 14 14 13 12 12 11 10 8 7 7 7 7 6 6 7 7 7 7 7 7 6 6 7 6 6 6 7
28 28 25 24 23 23 23 22 21 21 20 17 17 16 16 16 16 17 17 18 18 18 17 17 17 17 16 15 15 16 15 15 14 13 12 12 11 11 10 9 9 9 10 11 11 11 9 9 8 8 12 12 13 13 14 14 14 15 15 15 13 13 12 11 10 9 7 6 5 6 5 6 7 6 6 6 6 6 6 6 7 7 6 5 6
28 27 25 23 22 24 23 22 22 21 19 18 17 16 17 16 16 17 17 17 17 18 18 17 17 16 15 15 15 15 15 14 13 12 11 11 10 10 10 9 9 9 10 11 10 10 9 9 9 10 12 13 13 14 13 13 14 15 14 13 12 10 10 9 9 10 9 7 6 5 6 7 7 6 6 6 4 5 7 6 7 6 5 5 4
28 26 24 23 22 23 22 23 22 20 19 18 18 17 17 16 16 17 17 17 17 17 17 17 16 15 15 15 14 15 14 14 13 12 11 10 10 10 10 9 9 8 9 10 9 9 9 10 10 11 12 13 13 13 13 13 13 14 12 10 9 8 8 6 7 7 6 7 7 7 8 8 8 7 6 5 3 3 6 5 4 4 4 4 3
27 27 25 23 23 22 22 22 21 21 20 19 19 18 17 16 16 17 17 16 16 16 16 16 15 15 15 14 14 14 14 13 12 11 11 10 10 9 8 8 7 7 8 8 7 8 8 10 10 11 12 13 13 12 13 12 12 12 10 10 8 7 5 4 4 4 3 4 5 6 7 7 7 5 4 4 3 2 4 3 2 3 4 3 3
27 27 26 25 24 22 22 21 21 21 20 19 19 18 17 16 16 16 16 16 16 16 15 15 15 15 14 14 13 13 13 12 11 11 10 9 9 8 6 6 5 6 6 6 6 7 8 9 10 10 12 12 12 11 11 11 10 10 9 8 6 4 3 2 2 1 1 2 4 4 6 6 5 4 4 3 2 2 2 1 1 2 3 3 2
26 26 26 26 24 23 22 21 21 21 19 19 19 18 17 16 16 16 16 16 15 15 15 15 15 14 14 13 12 12 11 11 10 10 9 8 7 6 5 4 5 5 5 6 7 8 8 9 10 10 10 11 11 11 10 10 9 8 7 6 5 3 2 1 1 1 1 2 3 4 4 5 5 5 5 4 2 2 1 0 1 2 2 3 2
25 25 25 25 24 23 21 21 20 20 19 19 19 18 17 17 16 16 15 15 15 15 15 14 14 14 13 12 12 11 11 10 9 9 8 6 5 4 4 4 5 5 6 7 8 8 8 9 9 9 9 10 11 10 9 8 7 6 6 5 4 3 2 1 1 1 2 2 3 4 4 4 4 5 5 5 4 3 3 2 1 1 2 2 1
24 25 25 25 24 23 22 21 20 19 19 19 19 18 17 17 16 15 15 15 15 14 14 14 13 13 12 12 11 10 10 9 8 7 7 6 5 4 3 4 5 5 6 7 9 8 7 8 8 9 9 10 9 8 7 6 5 5 5 5 5 4 3 2 2 1 2 2 3 4 4 3 3 4 5 6 6 5 4 2 1 0 1 2 2
24 24 24 24 23 22 22 21 20 19 19 19 19 17 17 16 16 15 14 14 14 14 14 13 13 12 12 11 10 10 9 8 7 6 6 5 4 3 3 4 4 5 6 7 9 9 8 7 8 8 8 8 7 7 6 4 4 4 5 6 6 5 4 4 2 1 2 2 2 3 3 2 2 3 4 6 7 6 5 3 3 3 3 3 3
24 24 24 23 23 23 23 21 20 19 19 19 18 17 17 16 16 15 14 14 14 13 13 12 12 11 11 10 9 9 8 7 6 6 5 4 4 3 3 4 4 5 6 8 9 9 8 7 7 7 7 6 6 5 4 3 3 3 5 7 7 6 6 5 4 1 0 1 1 2 2 2 3 4 4 5 7 7 5 4 5 4 5 5 4
26 25 24 23 23 23 22 21 20 18 19 18 18 17 17 16 15 14 14 14 13 13 12 12 11 11 10 9 8 8 8 8 7 7 7 6 5 4 4 4 5 5 6 7 8 9 8 6 6 5 5 5 4 4 3 2 2 3 5 6 8 8 8 8 7 3 1 1 1 2 3 3 3 5 5 5 6 7 6 6 6 6 6 6 5
27 26 24 22 22 22 20 20 19 18 19 18 18 17 17 16 15 14 14 13 12 12 12 12 11 10 10 9 8 8 8 9 8 8 8 7 6 5 4 4 5 5 5 6 7 8 8 7 5 5 4 4 3 3 2 1 1 3 4 6 8 8 9 10 10 6 2 2 2 3 4 4 5 6 5 5 6 7 7 7 7 7 7 7 6
25 23 22 22 21 20 19 18 18 18 18 18 18 18 17 16 16 15 14 13 12 12 12 11 11 10 10 9 8 8 9 9 9 9 8 8 7 6 5 5 5 5 5 6 6 7 8 7 6 4 4 3 2 2 2 1 1 2 3 5 7 9 9 11 11 9 4 3 4 4 5 5 6 6 6 4 6 7 7 8 8 8 7 7 6
22 21 21 20 20 19 19 18 18 18 18 18 18 18 17 16 16 15 14 13 12 12 11 11 10 10 9 9 8 8 9 9 9 9 9 10 10 9 7 5 5 5 5 5 5 6 7 7 7 5 4 3 2 2 3 3 2 2 3 4 6 8 8 9 11 10 7 4 5 6 6 7 7 7 7 5 6 7 8 8 9 8 8 7 7
20 20 20 20 20 20 19 20 20 19 19 19 18 18 17 16 16 14 14 13 13 12 11 10 9 9 9 9 8 9 9 10 10 9 10 11 12 12 10 7 5 4 4 4 4 4 5 6 7 5 4 3 2 3 3 4 3 2 2 3 6 8 8 8 10 11 11 8 6 6 8 8 8 9 8 6 6 7 8 9 9 9 9 8 8
21 20 20 20 21 21 20 21 21 21 20 19 18 17 16 16 15 14 14 14 13 12 10 10 9 9 9 9 9 10 11 11 10 10 10 11 12 13 12 11 8 5 3 2 2 2 3 4 5 5 4 2 1 2 3 4 4 3 3 3 6 8 8 8 8 10 11 11 10 8 9 9 10 10 10 9 8 8 9 9 10 10 10 9 9
21 20 20 21 21 21 21 21 21 21 21 20 19 18 17 16 15 14 15 14 13 12 11 10 10 10 10 9 10 11 12 11 11 10 10 10 11 11 12 11 10 8 5 3 1 1 1 2 2 3 3 3 2 0 2 3 4 4 3 4 7 8 8 7 8 8 10 11 12 11 9 9 10 11 11 11 10 9 10 10 11 11 11 11 10
20 19 19 20 21 21 21 21 21 21 21 20 19 18 17 16 15 15 15 15 13 12 11 12 12 11 10 9 10 10 11 11 11 10 10 9 9 9 10 10 9 8 7 5 2 0 1 1 0 1 2 2 3 2 0 2 3 4 4 6 8 8 8 8 7 8 9 11 12 12 10 9 10 11 12 12 11 11 11 12 12 13 13 12 12
20 19 18 19 20 20 21 21 20 20 21 20 19 18 17 16 16 15 15 14 13 12 13 13 12 11 10 9 9 10 10 11 11 11 10 9 8 8 8 7 7 8 8 7 5 2 0 1 1 1 1 2 3 3 2 0 1 3 5 7 7 7 8 8 8 9 9 11 11 12 11 10 10 11 12 12 12 12 12 13 14 15 15 14 13
20 19 18 19 20 20 20 21 20 20 20 20 19 18 17 17 16 16 15 14 13 14 13 13 11 9 8 7 8 9 9 9 9 8 7 8 7 6 6 5 5 6 7 7 6 5 4 2 0 1 1 3 4 3 3 2 3 4 6 7 8 7 8 9 9 9 10 11 11 12 11 11 11 11 12 13 13 13 14 14 16 16 16 16 14
21 20 21 21 21 20 20 20 20 20 20 19 19 18 18 17 17 16 14 14 14 14 13 11 10 8 6 6 7 7 7 6 6 5 5 6 5 4 4 4 4 4 5 5 5 6 6 5 4 3 2 3 3 3 3 3 4 5 6 7 7 8 8 9 9 9 10 10 11 12 11 11 11 11 11 12 13 14 15 15 17 17 16 16 15
27 25 25 25 24 22 21 21 21 21 21 20 20 19 18 18 17 16 15 14 14 14 12 10 9 7 5 5 5 5 5 5 5 4 4 4 4 4 3 3 3 4 4 4 4 5 6 6 5 4 4 3 3 3 3 3 4 6 7 7 7 6 7 7 7 8 8 9 10 11 11 10 10 10 10 11 13 14 15 15 17 17 16 16 16
30 29 30 30 27 24 22 22 22 21 21 21 21 19 19 19 17 17 15 14 13 13 12 10 8 6 5 4 4 4 4 5 5 4 5 4 4 4 3 2 3 4 4 4 4 4 5 5 5 4 4 4 4 3 4 4 5 6 6 7 7 6 6 6 7 7 8 9 10 11 11 10 10 10 10 10 11 13 15 15 17 18 18 18 18
29 31 32 30 27 22 21 22 22 21 21 21 20 19 19 18 17 16 15 14 13 12 11 9 7 4 4 3 2 2 2 3 4 4 4 3 3 4 3 3 3 4 4 4 4 4 5 4 4 4 3 3 4 4 4 4 4 5 5 6 6 6 6 7 7 8 9 10 11 12 13 13 13 12 11 11 12 13 14 14 18 19 17 18 18
26 28 29 27 24 22 20 21 21 20 20 19 19 18 18 17 16 16 15 14 13 11 10 8 6 4 3 3 1 1 2 2 2 3 3 2 2 3 3 3 3 4 5 5 4 4 4 3 3 3 3 3 3 4 4 4 4 5 5 6 6 6 7 7 8 8 8 9 10 11 12 12 12 12 12 12 13 13 13 13 15 17 17 17 16
20 22 25 24 23 23 22 21 20 20 19 18 17 17 16 16 15 16 15 15 13 11 9 7 5 3 3 2 1 1 1 1 1 1 1 1 1 2 2 2 2 3 4 4 4 3 3 2 2 1 2 2 2 3 4 4 5 5 6 6 7 7 8 8 8 8 8 8 8 9 9 10 10 10 11 12 12 12 12 12 12 15 16 15 14
17 18 22 23 25 25 23 22 21 19 18 17 16 15 15 16 15 15 15 14 13 10 8 6 4 3 3 2 1 2 2 1 0 0 0 1 1 2 2 3 2 3 3 3 3 3 2 2 2 2 2 2 3 4 4 4 5 5 6 7 8 9 9 8 8 8 7 7 7 8 9 10 10 11 12 13 13 13 12 12 12 13 13 13 13
17 19 22 23 25 25 23 22 20 18 17 16 16 15 15 16 15 14 13 12 11 9 8 5 3 3 3 2 2 2 2 2 1 1 1 1 3 4 4 4 3 3 3 3 3 2 2 2 2 3 3 3 4 4 4 5 5 6 7 8 9 9 9 8 8 8 8 8 9 9 11 12 13 13 14 14 13 13 13 13 12 13 13 13 13
18 19 21 22 23 24 23 21 19 17 17 17 17 15 15 15 15 13 12 11 9 8 7 5 4 4 3 3 3 3 2 2 2 2 3 3 5 6 5 4 4 4 4 4 4 3 2 2 2 3 3 4 4 4 5 5 6 7 8 10 10 10 9 8 8 9 11 12 12 13 14 14 15 15 15 15 15 14 14 13 11 11 12 13 14
18 19 19 21 22 22 22 21 18 17 17 18 17 16 15 14 14 13 11 10 8 8 8 6 5 5 4 4 4 3 2 2 3 4 4 5 6 7 6 5 5 5 5 4 4 3 2 2 2 3 3 4 4 5 6 6 7 8 9 9 9 9 8 9 10 12 14 16 16 16 16 17 17 17 17 17 19 19 17 15 13 11 11 13 13
18 18 19 21 21 21 21 20 19 18 18 18 18 17 15 14 13 12 10 9 8 9 8 7 6 6 5 4 4 3 2 3 5 6 5 5 6 7 7 6 6 5 5 4 3 3 2 2 3 4 4 5 6 6 6 7 8 8 9 9 9 10 11 13 15 16 18 19 19 19 19 19 18 19 19 19 21 22 20 19 17 15 14 14 14
19 19 21 21 21 21 21 20 19 19 19 18 18 17 15 14 12 10 9 8 8 8 7 7 7 6 5 4 3 2 3 4 5 6 5 5 5 7 7 6 6 4 4 4 3 3 3 3 4 4 5 5 6 6 7 8 8 8 9 9 11 13 15 17 18 19 20 20 21 21 21 21 20 20 19 18 20 21 21 20 19 18 17 16 16
20 20 22 21 21 21 20 20 19 18 18 18 17 17 16 13 11 9 8 8 8 7 7 7 6 6 6 5 3 3 4 5 5 5 5 5 5 6 6 5 4 3 4 4 4 4 4 5 5 6 6 7 7 7 7 7 8 8 9 11 13 14 16 18 19 20 20 20 21 22 22 22 21 20 19 18 18 19 19 19 20 19 18 17 17
22 22 22 22 21 20 19 19 19 18 17 18 17 17 15 12 10 9 8 8 8 8 7 7 7 7 7 5 4 4 6 6 5 5 5 5 5 5 5 4 3 2 3 3 4 5 5 6 7 7 8 8 8 8 7 6 6 8 10 12 14 15 17 19 19 20 20 21 22 22 22 22 21 20 20 19 18 17 17 18 19 19 19 18 17
22 22 23 23 22 20 20 18 18 17 16 17 17 15 14 12 11 11 10 10 9 8 8 8 9 9 7 7 6 6 7 6 5 5 5 5 4 3 3 2 1 2 3 4 4 5 5 6 6 6 7 8 9 9 7 5 7 10 12 13 14 16 18 20 21 21 21 22 23 22 22 21 21 21 21 21 19 18 18 18 18 18 18 18 16
21 22 24 24 22 21 20 18 17 16 16 17 17 16 15 14 13 12 11 11 11 10 10 10 10 9 9 9 9 8 8 7 6 6 5 4 3 2 1 1 1 3 3 3 3 4 5 5 5 5 6 8 9 8 6 5 10 12 13 14 15 17 19 20 22 24 23 23 23 22 22 21 21 21 21 21 21 20 20 20 21 21 20 18 17
21 22 24 24 24 22 19 17 16 16 17 18 18 18 16 15 14 14 14 14 14 14 13 11 10 10 11 11 11 10 9 8 7 6 5 4 3 1 1 2 2 3 3 2 3 3 3 4 4 5 5 6 8 8 6 8 12 14 13 14 14 16 18 20 23 26 26 24 23 23 22 22 22 22 22 22 22 23 22 22 23 23 22 20 17
21 22 23 24 24 23 20 18 17 18 20 21 20 20 18 17 17 17 18 18 17 16 15 14 13 12 13 12 11 10 10 9 8 6 4 3 1 1 3 3 3 3 2 2 4 3 3 3 4 6 7 9 13 14 9 9 11 12 10 10 11 12 15 19 23 26 28 26 24 24 23 23 23 23 23 23 23 24 24 23 25 25 24 22 20
22 23 23 23 23 22 20 20 20 22 22 22 22 21 19 19 18 19 20 19 18 17 17 16 15 14 13 12 11 11 10 8 7 5 3 2 2 2 3 2 1 2 3 4 4 3 4 4 4 8 11 15 18 18 13 7 6 7 6 5 5 4 6 12 19 22 26 28 25 25 25 24 24 23 23 24 25 26 25 25 27 27 26 25 23
21 22 22 23 23 22 22 22 23 23 22 21 21 20 19 18 18 20 20 20 19 18 17 17 15 14 13 12 11 9 8 6 5 3 2 2 2 2 2 1 2 3 3 4 5 6 6 6 6 9 12 17 21 21 20 14 6 5 4 3 1 1 0 6 13 15 20 26 27 26 26 25 23 22 22 24 27 26 24 25 28 29 27 26 26
18 19 21 22 23 23 23 23 24 23 22 20 19 19 19 18 18 20 20 20 20 20 18 16 15 13 12 10 8 7 5 4 3 2 2 2 2 2 2 3 4 4 4 5 8 9 10 10 9 10 11 16 21 23 23 21 15 7 3 1 1 2 1 4 10 8 12 21 28 27 26 26 24 21 22 25 27 27 24 25 28 30 29 28 27
18 20 21 22 21 23 24 23 22 21 20 19 19 20 20 21 22 22 21 21 21 19 18 16 14 13 11 9 7 5 4 3 3 3 3 3 3 3 3 4 5 6 6 8 11 12 12 12 12 12 13 16 20 24 24 24 24 18 11 6 2 2 1 5 7 4 7 15 24 26 25 26 25 22 22 24 26 27 24 24 28 30 30 30 29
19 21 22 22 21 22 22 20 19 19 19 19 20 22 22 24 25 25 24 23 21 17 17 16 13 11 10 8 7 5 4 3 3 4 4 5 5 4 4 6 8 8 9 10 13 14 14 15 14 14 15 15 18 23 23 23 26 26 23 18 12 7 2 3 2 2 6 9 17 24 23 24 25 23 20 22 26 28 25 24 27 30 31 31 31
20 21 21 21 21 20 19 17 17 19 20 21 22 23 24 25 25 24 24 24 21 17 16 15 13 11 9 8 7 6 4 4 5 6 6 6 6 7 7 8 10 11 11 12 14 15 16 17 16 17 18 16 17 22 20 19 22 24 24 23 22 19 12 8 3 1 3 4 11 21 23 21 22 23 20 18 22 26 25 24 26 29 31 31 31
20 20 19 19 19 17 16 16 17 20 22 22 23 23 24 25 24 23 22 21 20 19 17 15 13 11 10 8 7 6 6 5 7 8 8 8 8 9 9 11 12 13 13 14 16 17 18 19 18 18 19 19 20 23 23 21 21 20 19 21 22 23 22 19 12 6 2 2 5 13 20 20 19 22 22 17 18 24 25 25 26 29 30 31 32
19 19 19 18 17 16 17 18 19 21 23 23 23 23 24 24 24 24 22 20 19 20 18 16 14 12 11 10 8 8 7 7 8 9 10 10 10 11 12 12 13 14 15 16 17 18 18 19 19 18 20 22 22 23 25 25 24 22 20 20 20 20 22 24 21 14 7 3 2 4 16 19 14 19 22 17 16 21 26 25 25 28 29 31 32
19 19 19 19 18 18 20 21 20 21 22 23 24 24 25 24 24 24 23 21 21 20 19 17 15 13 12 11 10 9 9 9 11 11 11 11 12 12 13 14 14 15 16 17 17 18 19 19 20 20 21 23 23 23 25 25 26 25 24 24 24 21 19 19 21 18 11 6 3 3 12 15 9 14 22 18 14 17 25 26 24 27 29 30 31
19 19 20 20 20 19 20 19 19 21 22 23 24 25 25 24 24 24 23 23 22 21 20 18 16 14 13 12 11 10 11 12 13 13 13 12 13 13 14 15 15 16 17 17 18 19 20 20 21 21 22 23 23 23 25 25 26 27 27 28 27 24 19 15 16 17 12 7 4 4 10 13 7 10 19 19 14 13 21 28 25 25 29 30 31
Wind_Direction
171 167 154 152 153 152 157 158 155 152 151 149 147 148 145 139 133 128 123 121 119 118 117 115 115 115 115 115 114 114 113 111 111 111 110 108 104 101 99 96 91 85 80 78 78 78 75 75 79 92 107 106 99 97 99 102 104 100 99 98 100 101 97 91 89 86 85 90 94 94 88 78 55 61 83 92 103 97 86 95 101 102 94 82 85
163 160 152 152 152 152 156 157 155 151 151 148 148 149 142 137 132 128 125 123 121 120 117 116 116 116 115 115 115 114 113 111 111 111 110 108 105 102 99 96 92 84 75 76 79 77 73 71 70 88 110 113 104 102 105 105 106 104 104 106 104 104 101 98 102 98 95 100 104 105 101 84 57 60 74 80 95 96 94 106 105 102 91 77 77
154 153 151 151 151 152 156 156 154 151 151 147 148 149 140 135 131 128 126 125 123 121 119 118 117 117 116 115 114 113 111 110 109 109 109 108 106 104 100 95 91 82 69 74 77 74 71 70 66 89 113 115 109 106 107 108 108 106 106 108 105 106 103 98 101 101 104 113 116 118 113 92 75 74 75 76 86 89 95 106 96 80 75 83 81
149 150 148 149 150 153 156 154 153 151 150 146 149 146 137 133 132 130 129 127 124 121 120 120 119 118 117 116 115 113 111 110 109 109 109 107 107 104 99 91 86 76 65 71 75 71 66 69 70 95 114 113 112 110 108 109 110 110 109 109 106 103 96 90 84 82 94 107 117 122 116 104 96 88 81 81 83 82 85 87 88 82 68 75 77
146 146 145 148 151 153 154 155 153 150 148 147 148 141 135 135 134 133 130 127 124 123 123 121 119 118 117 117 115 113 111 110 110 109 109 108 107 103 96 86 81 72 66 70 71 69 64 71 78 96 110 113 115 113 111 110 113 115 113 111 111 104 93 88 75 66 74 87 99 104 104 105 102 97 88 88 89 77 83 78 81 91 78 68 64
145 142 145 149 152 153 154 156 152 149 148 147 144 138 138 139 137 133 130 127 125 125 124 121 119 118 118 117 116 113 112 111 111 109 109 108 105 99 87 77 75 70 70 72 70 70 68 75 86 97 108 115 117 115 115 113 116 117 113 114 118 113 101 97 77 57 60 78 88 91 95 99 102 109 108 107 112 74 91 108 101 107 94 82 78
145 143 148 152 152 154 156 156 151 149 147 146 142 140 143 140 136 133 130 128 126 125 122 120 118 117 117 116 115 113 113 111 111 109 105 101 97 89 80 73 72 73 78 78 76 80 76 82 91 102 113 119 119 117 116 115 116 115 110 111 112 107 99 92 79 68 62 75 83 87 90 97 104 111 110 113 124 79 90 117 120 118 101 90 81
145 148 152 152 152 156 157 155 151 149 147 145 142 143 144 139 136 133 132 130 127 124 121 120 117 117 116 115 115 114 114 113 111 106 101 98 96 93 87 78 74 78 84 75 72 85 91 98 102 109 119 123 124 123 121 119 117 112 107 104 99 88 70 40 49 99 112 82 91 94 89 89 87 76 58 55 87 75 84 105 80 95 101 105 77
147 152 152 151 153 156 158 156 152 149 147 144 144 145 144 140 137 134 133 129 125 123 121 120 118 118 117 116 116 116 115 113 111 105 103 104 106 105 96 81 77 79 80 65 61 76 97 115 120 119 123 128 133 135 132 128 122 114 106 95 80 51 10 352 14 139 147 110 110 106 91 80 68 52 35 32 48 27 16 119 103 87 81 105 85
151 152 151 152 152 156 159 155 152 150 147 144 145 146 145 142 138 135 132 127 123 121 121 119 118 118 119 119 119 118 116 114 110 108 106 103 101 94 84 76 75 75 73 63 59 69 93 118 129 128 128 135 140 138 135 130 124 114 100 81 60 28 353 358 31 106 136 121 110 105 95 79 57 37 23 23 25 360 3 30 64 79 49 70 45
153 152 152 151 151 158 159 154 153 151 148 146 147 147 146 143 138 136 131 126 123 121 120 117 117 119 120 122 122 121 118 114 111 110 107 102 97 90 82 71 71 76 72 62 61 67 88 114 128 133 136 140 141 138 134 129 120 103 84 66 51 30 5 16 45 82 122 127 103 95 96 85 48 27 17 9 10 3 5 22 23 343 326 339 336
154 152 150 149 155 160 157 155 155 152 149 146 148 148 146 142 138 135 130 127 124 122 121 119 120 120 122 123 123 119 115 114 111 109 108 109 104 96 87 75 78 82 76 67 66 66 81 115 130 139 143 143 143 138 132 126 110 87 69 59 50 34 15 19 40 77 104 117 95 80 85 82 46 28 20 358 3 6 5 356 331 324 322 327 326
152 149 148 153 161 160 156 156 156 154 150 147 149 148 145 141 136 134 131 128 125 124 122 121 123 122 122 121 119 114 110 105 97 96 95 94 84 84 86 84 90 88 85 76 71 66 75 111 134 141 146 148 147 141 135 126 101 72 58 57 48 35 27 23 23 28 96 101 74 57 52 51 34 22 16 351 356 5 6 355 336 333 332 336 335
150 150 153 160 162 159 156 156 156 153 149 149 150 147 143 139 137 137 133 130 128 127 124 122 120 118 118 116 114 107 98 89 84 83 78 75 71 74 86 98 104 98 96 84 76 71 72 101 133 145 153 160 157 153 150 134 93 61 53 54 49 38 33 31 26 16 306 263 351 16 13 12 9 8 9 352 351 0 4 359 346 341 338 340 341
151 153 158 161 159 158 158 156 154 152 151 152 150 146 143 141 141 140 135 132 130 127 124 122 120 118 116 113 109 101 93 87 84 81 75 71 67 70 87 111 122 115 109 97 85 77 73 91 128 152 163 175 175 176 180 167 71 47 45 46 48 44 36 34 31 22 354 294 305 329 342 346 346 350 359 351 346 351 353 353 349 347 346 343 341
153 155 158 155 154 157 158 157 154 153 155 153 150 148 146 146 145 142 138 133 128 127 125 124 123 121 118 113 106 100 96 91 87 82 77 71 66 69 87 114 130 128 121 111 96 85 78 84 113 151 172 193 204 210 225 245 310 19 35 40 42 42 36 32 31 25 6 318 307 318 325 330 330 333 342 339 336 342 340 341 344 346 348 345 342
153 154 153 151 154 157 159 159 155 156 157 154 152 151 150 149 147 143 139 134 131 132 129 127 125 121 117 111 104 99 95 93 91 87 80 73 70 71 82 103 124 131 128 122 108 93 84 82 98 131 167 195 219 237 250 262 286 348 17 22 24 28 30 29 26 23 14 339 309 311 315 319 318 319 326 321 320 330 330 330 335 339 342 342 342
150 151 151 153 157 160 162 159 157 160 159 155 153 153 152 150 147 143 139 138 137 135 131 129 126 121 115 107 101 96 96 97 95 90 83 77 73 70 74 86 104 120 128 130 120 100 89 82 87 107 142 179 216 240 253 261 278 318 350 357 360 5 16 21 18 18 18 4 335 314 311 313 310 310 314 313 311 317 320 321 324 328 330 332 334
148 150 153 157 161 163 163 161 161 161 159 156 154 155 154 151 148 144 143 143 140 137 133 130 125 121 114 108 102 98 98 100 99 93 86 80 76 71 69 74 82 89 99 118 127 118 97 82 80 90 107 130 183 241 257 259 271 295 323 333 338 348 360 6 8 12 11 6 355 337 322 312 305 304 304 306 307 309 312 313 314 317 318 320 321
149 153 156 161 163 165 164 163 163 161 160 158 156 157 156 154 151 149 149 147 143 139 137 132 126 120 115 109 103 99 96 98 101 96 88 83 78 74 69 69 73 77 81 87 104 162 137 95 84 78 81 87 86 87 253 254 268 284 302 316 329 342 350 353 358 1 359 357 353 345 334 316 306 301 300 301 302 303 305 307 307 307 308 308 309
153 155 160 165 166 167 167 166 165 163 162 159 159 159 158 158 155 155 154 149 145 141 139 133 126 121 116 110 105 101 95 94 98 95 89 82 76 75 72 69 69 71 72 73 75 127 234 221 134 58 51 51 45 43 53 237 259 279 294 312 324 334 341 345 347 346 349 349 348 346 338 321 309 303 300 297 297 299 300 302 303 302 302 302 303
158 159 163 170 173 172 171 170 168 166 164 161 161 160 162 163 160 160 157 152 147 144 141 134 127 121 119 114 110 107 100 95 93 90 86 79 76 75 73 69 66 65 62 62 63 60 360 252 257 293 354 24 25 25 28 33 307 314 312 313 315 321 328 333 336 337 343 346 347 349 343 329 315 304 299 296 294 297 298 298 299 299 299 300 301
162 164 167 173 179 178 175 174 171 170 167 164 162 163 168 166 164 163 158 155 151 147 143 136 129 124 122 119 117 112 107 101 91 85 76 73 75 73 72 69 66 63 59 55 54 57 59 54 15 321 14 35 36 34 32 19 354 337 323 312 306 310 319 325 329 334 341 344 344 345 343 335 323 310 301 296 295 296 298 298 297 297 298 300 300
166 170 175 178 183 183 182 180 175 173 169 166 166 170 172 168 165 163 161 160 155 148 142 138 134 128 121 117 119 115 110 105 93 81 67 69 69 60 63 69 74 70 62 56 55 57 57 58 65 69 60 49 37 31 29 18 7 358 346 330 315 309 314 320 323 328 335 338 341 343 341 337 332 323 310 299 297 298 299 296 296 296 295 298 298
169 173 180 184 187 187 187 183 179 176 171 169 172 174 173 170 167 164 164 164 157 149 141 139 136 128 116 113 118 112 107 98 86 71 58 62 58 41 35 57 81 80 72 68 65 61 59 62 65 70 67 53 41 31 29 25 17 7 3 358 346 329 322 321 322 324 331 338 344 348 347 344 339 333 324 311 303 301 301 296 293 292 289 291 291
172 176 182 186 189 189 189 186 182 179 174 174 176 176 175 173 170 166 166 165 160 150 142 139 134 125 116 113 110 99 93 85 70 55 48 47 41 31 23 30 69 83 83 76 71 63 60 65 68 71 67 52 45 35 23 13 5 1 2 4 2 355 345 338 337 338 344 350 354 358 358 355 350 345 336 323 314 306 303 299 291 286 284 289 291
178 181 182 185 188 189 190 188 186 181 177 179 179 179 178 176 172 168 167 166 164 155 146 141 136 131 122 117 104 74 64 63 52 46 43 34 25 19 16 10 35 73 76 73 67 57 53 57 63 67 64 54 45 35 24 14 7 8 7 6 1 354 349 347 347 349 354 359 2 5 5 1 357 354 347 335 325 313 309 304 295 291 292 297 303
185 185 183 183 186 190 191 190 189 184 181 184 183 183 181 178 176 170 167 167 166 161 154 148 146 152 143 130 92 34 27 34 37 39 34 22 24 16 11 8 32 66 72 75 65 52 46 45 53 65 66 60 49 41 33 27 18 12 7 2 355 347 346 346 346 346 351 0 6 6 4 1 358 353 347 341 336 328 326 322 309 308 310 309 311
191 190 185 183 186 192 193 192 191 187 187 187 187 189 182 179 181 174 169 170 170 167 165 160 161 171 162 148 106 66 56 42 23 29 29 21 41 35 36 48 58 70 77 79 70 58 48 44 50 54 53 41 36 39 32 27 18 9 1 354 350 350 350 346 344 341 342 347 352 357 357 356 355 349 348 349 350 350 351 348 331 326 328 323 319
196 196 191 187 189 192 195 195 193 190 190 190 191 192 184 183 185 178 174 175 175 174 173 171 176 187 176 166 167 127 120 147 145 180 156 39 97 105 99 107 90 84 89 83 82 76 67 65 53 38 23 11 18 26 23 18 13 6 358 355 356 357 354 350 349 347 348 352 355 5 10 9 9 6 6 6 6 7 10 9 357 349 350 347 339
197 198 195 192 190 191 195 196 195 193 192 193 195 193 187 187 187 181 180 182 180 181 181 184 193 191 186 185 191 173 155 166 162 150 129 96 118 120 118 125 120 107 100 89 89 85 77 61 40 30 18 18 21 19 15 12 10 5 359 360 0 359 357 358 3 9 19 27 31 34 35 34 32 30 29 26 23 23 27 27 17 7 5 5 3
198 199 196 194 191 190 193 195 196 196 196 198 200 197 192 191 190 184 185 189 188 190 193 203 210 198 200 203 202 204 198 184 151 125 111 117 129 130 130 132 125 112 101 93 91 82 69 51 37 36 28 26 23 20 18 11 8 2 360 1 2 5 11 19 31 42 49 51 51 49 49 50 47 46 46 43 40 43 45 44 39 26 19 19 19
197 197 195 193 191 190 191 193 194 198 200 202 204 202 199 196 192 187 188 194 197 204 209 216 216 202 206 214 220 223 199 153 137 130 118 124 132 135 138 130 118 111 106 99 94 83 67 50 37 28 21 17 14 19 17 11 11 5 7 12 18 30 42 52 60 62 63 63 62 62 60 60 58 57 57 55 54 56 56 56 55 50 41 35 35
193 193 193 193 191 190 191 190 189 195 200 202 206 206 203 199 195 192 196 205 214 221 220 217 210 201 209 222 229 215 164 139 143 142 127 130 138 138 136 126 118 116 111 101 90 77 49 30 23 11 6 9 11 15 15 21 24 21 30 40 53 68 74 75 75 72 71 70 69 68 66 65 64 63 63 63 62 59 58 58 56 55 52 47 47
190 191 193 192 191 192 193 190 189 196 199 202 207 206 203 202 202 203 207 218 223 222 212 202 198 197 205 211 207 176 154 151 151 147 134 140 148 142 134 125 120 114 102 85 67 51 35 23 21 13 8 13 17 16 19 29 34 42 57 70 80 84 82 79 76 72 69 68 68 67 66 66 65 64 63 64 63 58 54 53 52 51 50 49 49
191 192 192 190 192 194 195 192 193 197 197 200 204 204 204 205 207 209 210 213 208 197 186 184 188 188 187 186 181 164 164 160 154 154 151 153 152 141 131 121 114 95 82 72 52 37 26 14 10 5 2 4 5 7 14 27 42 63 77 85 89 87 81 76 71 68 65 63 63 64 65 65 65 64 61 59 59 55 51 47 46 45 45 45 45
194 194 191 190 193 194 193 193 195 196 194 197 200 201 203 203 199 194 193 191 182 172 166 167 169 168 166 163 163 164 162 158 158 169 170 161 151 139 126 113 96 66 56 43 28 20 8 357 356 355 354 354 351 356 6 21 61 89 93 92 90 84 77 71 66 62 60 58 59 61 63 64 64 63 59 56 53 48 45 42 40 39 39 38 39
195 194 191 192 195 193 193 194 196 196 193 196 197 196 195 189 182 178 177 171 161 156 151 149 149 149 150 150 156 157 154 156 165 175 176 164 151 140 127 107 54 14 9 7 6 358 346 342 348 352 355 358 356 357 4 37 102 111 102 95 88 81 74 67 62 57 55 56 57 59 62 63 62 60 58 54 50 43 37 35 33 33 34 32 32
193 193 191 193 195 194 194 197 198 198 196 195 192 188 183 177 169 163 160 153 145 143 142 140 137 142 147 148 152 151 151 159 165 173 175 164 155 146 132 74 360 344 343 347 348 343 338 341 355 8 11 16 13 8 18 76 118 122 108 96 86 78 72 64 59 55 53 55 57 60 61 62 62 59 56 52 48 43 35 31 29 28 29 28 27
190 191 190 191 194 194 196 196 196 201 197 190 185 179 171 164 159 150 142 138 139 138 135 136 136 142 145 144 145 145 151 157 157 165 168 161 158 153 329 332 331 326 328 338 359 3 357 360 29 43 36 41 39 37 60 101 121 127 115 101 87 75 68 62 58 54 53 55 57 59 60 60 60 57 54 50 45 41 36 30 28 28 27 26 25
187 190 189 189 192 194 195 190 191 195 193 187 182 177 169 159 150 143 137 136 139 136 132 135 139 142 143 142 144 146 152 154 155 163 165 171 180 263 296 301 306 317 341 18 30 28 35 48 72 71 62 60 54 49 65 110 126 128 125 112 92 77 65 55 55 54 51 52 55 57 59 59 57 55 52 48 43 40 37 30 27 29 28 26 25
180 184 187 186 188 191 191 186 184 186 186 185 182 177 174 167 155 147 142 137 137 137 134 135 137 139 141 142 144 145 149 152 155 165 174 203 240 258 262 263 294 17 36 49 53 61 81 98 102 87 75 66 58 51 54 86 130 133 131 129 105 86 60 43 47 52 50 49 52 54 56 57 56 54 50 46 41 38 38 32 28 29 29 28 27
176 180 183 183 185 188 188 184 182 183 183 183 181 176 171 169 161 154 148 139 136 138 137 137 139 142 140 138 139 140 145 149 152 166 185 200 229 231 206 143 94 64 58 72 84 91 99 115 117 100 84 73 64 55 53 59 84 128 115 100 87 335 293 21 27 42 48 45 47 50 51 54 55 54 50 46 40 37 38 33 29 29 29 29 29
173 176 179 182 184 187 189 188 186 184 183 181 179 174 164 160 157 152 149 142 137 137 138 138 140 142 137 133 134 133 142 150 154 171 185 180 188 183 150 115 94 82 83 94 95 95 100 108 109 100 86 78 72 62 56 57 63 82 98 119 130 50 79 341 352 19 45 42 43 44 47 50 52 53 52 48 40 36 39 35 29 29 29 28 28
174 179 181 184 186 188 190 191 188 182 182 182 178 171 160 154 148 143 141 137 135 138 140 137 136 137 135 132 128 125 132 138 151 162 164 168 163 150 131 108 97 94 96 96 94 94 94 96 96 92 84 83 83 73 64 60 61 65 74 90 85 60 112 309 328 2 32 38 40 39 44 47 47 50 51 48 40 34 38 36 28 28 29 27 26
179 184 186 189 191 191 190 188 182 178 181 182 178 172 165 160 152 147 144 140 137 141 145 142 139 140 136 131 125 115 114 117 130 141 146 154 149 133 119 108 103 101 100 97 95 91 88 89 89 90 88 87 89 83 75 70 68 67 71 77 76 81 110 315 332 348 2 27 37 35 40 46 44 46 49 47 39 33 36 35 27 27 29 27 25
184 186 188 192 194 192 188 182 173 175 183 179 175 174 168 164 162 158 156 152 146 143 147 149 147 147 139 129 122 109 104 110 121 131 138 144 136 125 116 110 106 103 102 97 94 91 89 90 89 89 89 87 86 87 85 79 75 71 71 75 75 75 72 64 75 25 347 5 23 26 32 43 45 41 46 51 40 33 36 36 29 27 28 27 25
187 189 189 192 195 189 180 174 168 179 184 175 174 177 171 167 166 162 158 157 155 147 148 151 148 148 139 127 119 112 110 116 125 132 136 136 129 123 116 111 108 104 101 96 95 95 94 93 90 88 86 82 81 84 83 78 76 75 73 74 73 69 65 66 69 72 78 294 346 14 17 30 45 39 41 52 44 34 34 36 32 27 26 25 23
188 189 189 192 192 182 181 184 180 183 181 173 174 177 175 173 168 163 157 156 157 151 151 151 148 146 136 126 120 118 121 126 132 136 136 133 126 121 116 111 108 105 103 101 100 98 95 91 88 85 84 82 80 80 79 75 74 74 72 70 68 63 57 55 53 57 67 24 347 346 356 8 30 32 34 46 45 34 30 32 31 26 24 22 19
188 187 188 191 185 181 192 192 182 180 178 175 175 174 175 175 171 168 162 157 156 154 152 149 147 145 134 127 124 125 131 135 137 138 137 132 124 120 116 112 110 108 107 104 101 96 92 90 86 85 85 83 81 79 78 77 75 72 68 65 61 56 50 43 39 41 48 36 16 318 344 351 352 7 19 32 42 32 25 26 27 23 19 17 14
187 184 188 191 181 182 188 179 174 182 180 176 176 174 175 176 176 175 169 164 162 159 156 150 147 145 135 130 130 133 138 140 140 140 137 131 125 120 115 115 114 111 108 103 99 96 93 92 90 88 85 84 83 81 81 79 76 72 66 65 63 60 58 50 40 37 41 35 4 324 340 342 319 342 4 17 30 29 19 18 20 18 13 10 8
Height
791 793 795 797 799 801 803 804 807 808 810 811 812 813 813 813 813 813 814 814 814 815 815 816 817 818 819 819 819 819 820 821 822 823 823 824 824 825 825 826 826 827 827 827 827 827 827 827 827 827 827 828 828 828 828 828 829 829 829 829 830 831 831 831 831 832 832 832 832 832 831 831 831 831 831 830 830 830 830 830 829 829 829 829 828
789 793 796 798 799 801 803 804 807 808 810 812 813 813 814 814 815 814 815 815 815 816 816 817 817 818 819 819 820 820 820 821 822 823 824 824 825 825 826 826 827 827 827 827 827 828 828 828 828 828 828 828 828 829 829 829 829 829 830 830 830 831 831 832 832 832 832 832 832 832 832 832 832 831 831 831 831 831 831 830 830 830 830 829 829
789 794 796 799 800 802 803 804 806 808 810 812 813 814 815 816 816 816 816 816 816 817 817 818 818 819 820 820 820 820 821 822 823 824 825 825 825 826 826 827 827 828 828 828 828 828 828 828 828 828 828 829 829 830 830 830 830 830 830 831 831 831 832 832 832 832 832 833 833 833 833 833 832 832 832 832 832 831 831 831 831 831 831 830 830
791 794 797 800 801 802 803 804 806 808 810 812 813 814 816 816 817 817 817 817 817 817 818 818 819 820 821 821 821 821 822 823 824 824 825 826 826 826 827 827 828 828 828 829 829 829 829 829 829 828 829 829 830 830 831 831 831 831 831 831 832 832 832 832 833 833 833 833 833 833 833 833 833 833 833 833 832 832 832 831 831 832 831 831 831
793 796 799 801 802 803 803 804 806 808 810 811 813 815 816 817 817 817 818 818 818 818 818 819 820 821 821 822 822 822 823 824 824 825 826 826 827 827 828 828 828 829 829 830 830 830 830 830 829 829 830 830 831 831 832 831 831 832 832 832 832 833 833 833 833 833 833 833 833 833 833 833 834 834 834 833 833 832 832 832 832 832 832 832 831
794 797 800 802 803 803 803 804 805 807 809 811 813 815 816 817 817 818 818 818 818 819 819 820 821 822 822 823 823 823 824 824 825 826 827 827 827 828 828 829 829 830 830 831 831 831 831 831 831 830 831 831 832 832 832 832 832 832 833 833 833 833 833 833 833 833 833 834 834 834 834 834 834 834 834 834 834 833 833 833 833 833 833 832 832
794 797 799 802 804 805 804 804 805 807 809 810 813 815 816 817 817 818 818 819 819 820 820 821 822 823 823 824 824 824 825 825 826 827 827 828 828 829 829 829 830 830 831 831 832 832 832 832 832 832 832 832 832 833 833 833 833 833 833 833 833 834 833 834 833 834 834 834 834 834 834 834 834 834 834 834 834 834 834 834 833 833 833 833 832
795 797 799 801 803 805 805 805 806 807 809 811 813 815 816 817 817 818 819 820 820 821 822 822 823 824 825 825 825 825 825 826 827 827 828 828 829 829 830 830 830 831 831 832 832 833 833 833 833 833 833 833 833 834 834 834 834 834 834 834 834 834 834 834 834 834 834 834 834 834 834 834 835 835 835 835 835 835 834 834 834 834 833 833 833
796 797 799 801 802 804 805 806 807 808 809 811 813 815 816 817 818 819 820 820 821 822 822 823 824 825 825 826 826 826 826 826 827 828 828 829 829 829 830 830 830 831 832 832 833 833 834 834 834 834 834 834 835 835 835 835 835 835 835 835 834 834 834 834 834 834 834 835 835 835 835 835 835 835 835 835 835 835 835 835 835 834 834 834 833
797 799 800 801 803 805 806 807 808 809 810 812 814 815 816 817 818 819 820 821 822 823 823 824 825 825 826 826 827 827 826 827 828 828 829 829 830 830 830 830 831 831 832 833 834 834 835 835 835 835 836 836 836 836 836 836 836 836 836 835 835 835 834 834 834 834 835 835 835 835 835 836 836 836 836 836 836 836 835 835 835 835 834 834 834
799 800 801 802 804 805 807 809 810 811 811 813 814 815 817 818 819 820 821 822 823 824 824 825 825 826 827 827 827 827 827 828 828 829 829 830 830 830 830 831 831 832 833 833 834 835 835 836 836 836 837 837 837 837 837 838 837 837 837 837 836 835 835 835 835 835 835 836 836 836 836 836 836 836 836 836 836 836 835 835 835 835 835 834 834
801 802 803 804 805 806 808 810 811 812 812 813 815 816 817 819 820 821 822 823 824 824 825 826 826 827 827 828 828 828 828 828 829 829 830 830 830 830 830 831 831 832 833 834 835 835 836 837 837 837 838 838 838 839 839 839 839 839 838 838 837 836 836 836 836 836 836 836 836 836 836 836 837 837 836 836 836 836 836 835 835 835 835 834 833
802 803 804 805 805 806 808 810 811 813 813 814 816 817 818 819 821 822 823 824 825 825 826 826 827 827 828 828 829 829 829 829 829 830 830 830 830 830 830 831 831 832 833 834 835 836 837 837 838 838 839 839 839 840 840 840 840 839 839 839 838 837 837 836 836 836 837 837 837 837 837 837 837 837 837 837 836 836 836 835 835 835 834 834 833
801 803 804 804 805 807 808 810 812 813 814 815 816 817 819 820 822 823 824 825 825 826 826 827 827 828 828 829 829 829 829 829 830 830 830 830 830 830 831 831 832 832 833 834 835 836 837 838 839 839 839 840 840 840 840 840 840 840 840 840 839 838 838 837 837 837 837 837 837 837 837 837 837 837 837 837 837 837 836 836 835 835 834 833 833
801 802 804 805 807 808 810 811 813 814 815 816 817 818 819 820 822 823 824 825 825 826 826 827 827 828 828 829 830 830 830 830 830 830 831 831 831 831 831 831 832 832 833 834 835 836 837 838 839 839 840 840 840 841 841 841 841 841 841 840 840 839 839 838 838 837 837 837 838 837 837 837 837 837 837 837 837 837 836 836 835 835 834 833 832
803 804 806 808 810 811 812 813 814 815 816 817 817 818 819 820 821 823 824 824 825 826 826 827 828 829 829 830 830 830 830 830 830 831 831 831 831 831 831 832 832 833 833 834 835 836 837 838 839 839 840 840 841 841 841 841 841 841 841 841 840 840 839 838 838 838 838 838 838 838 838 838 838 838 838 838 837 837 837 836 835 835 834 833 833
806 807 809 810 812 813 813 814 814 815 816 816 817 818 819 820 821 822 823 824 825 826 827 828 828 829 830 830 831 831 831 831 831 831 831 831 831 832 832 832 833 833 834 834 835 836 837 838 838 839 840 840 840 841 841 841 841 841 841 841 840 840 840 839 839 838 838 838 838 838 838 838 838 838 838 838 837 837 837 836 835 834 834 833 832
808 809 810 811 811 813 813 813 814 814 816 817 818 819 820 820 821 822 823 824 825 826 827 828 829 830 831 831 832 832 831 831 832 832 832 832 832 832 832 833 833 834 835 835 835 836 837 838 838 839 839 840 840 840 841 841 841 841 841 841 841 840 840 840 840 839 839 839 839 838 838 838 838 838 838 838 837 837 836 836 835 834 834 833 832
808 809 810 811 811 812 812 813 813 814 816 817 818 819 820 821 822 822 823 824 825 826 827 828 829 830 831 832 832 832 832 832 832 832 832 832 832 833 833 833 834 835 835 835 836 836 837 837 838 838 839 839 840 840 840 841 841 841 841 841 841 840 840 840 840 840 839 839 839 839 839 838 838 838 838 837 837 836 836 835 835 834 833 833 832
808 808 809 810 811 812 812 813 814 814 816 817 818 819 820 821 822 823 823 824 825 826 827 829 830 830 831 832 833 832 832 832 832 833 833 833 833 833 834 834 835 835 836 836 836 836 836 837 838 838 839 839 840 840 840 840 841 841 841 841 840 840 840 840 840 840 840 839 839 839 838 838 838 838 837 837 837 836 836 835 834 834 833 832 831
807 808 809 810 811 812 813 814 814 815 815 816 818 819 820 821 822 823 823 824 824 826 827 829 830 830 832 832 833 833 833 833 833 833 833 834 834 834 834 835 835 835 836 836 836 836 837 837 837 838 838 839 839 839 840 840 840 840 840 840 840 840 840 840 840 840 840 839 839 838 838 838 837 837 837 837 836 836 835 835 834 833 832 832 831
806 808 810 811 813 813 814 815 815 815 816 817 818 819 821 821 822 823 823 824 825 826 827 829 830 830 832 832 833 833 834 834 834 834 834 834 834 835 835 835 835 836 836 836 837 837 837 837 837 837 838 838 838 839 839 839 840 840 840 839 839 839 839 839 840 840 840 839 839 838 838 837 837 837 836 836 836 836 835 834 833 832 832 831 831
805 807 809 812 813 814 815 816 815 816 817 818 819 819 820 821 822 824 824 825 825 826 827 828 829 831 832 832 833 833 834 835 835 835 835 835 835 835 835 835 836 836 837 837 837 837 837 837 837 837 837 838 838 838 838 839 839 839 839 839 839 839 839 839 839 839 839 838 838 838 837 836 836 836 836 836 836 835 834 833 832 831 831 831 831
803 806 808 810 813 814 815 816 816 816 817 818 819 820 820 821 823 824 825 826 826 826 827 828 829 831 832 833 833 834 834 835 835 835 836 836 836 836 836 836 836 836 837 837 838 838 838 837 837 837 837 837 838 838 838 839 839 839 839 838 838 838 838 838 838 838 838 838 837 837 836 836 835 835 835 835 835 835 834 833 831 831 831 831 830
798 801 804 807 810 812 814 815 816 816 817 817 818 819 820 822 822 824 825 826 826 826 826 828 829 831 832 834 834 834 834 835 835 836 836 836 836 837 837 836 836 836 837 837 838 838 838 838 837 837 837 837 838 838 838 838 839 839 838 838 838 838 838 838 838 837 837 837 837 837 836 836 835 835 835 834 834 834 833 833 831 830 830 830 829
794 795 798 802 805 809 812 813 814 815 816 817 818 819 820 821 822 823 825 826 827 827 827 828 830 832 833 834 835 835 835 835 836 836 836 836 837 837 837 837 836 836 836 837 838 838 839 838 838 838 838 838 838 838 838 838 838 838 838 838 838 838 838 837 837 837 837 837 836 836 836 835 835 834 834 834 834 833 833 833 831 829 829 829 829
795 793 795 799 803 807 810 812 814 815 816 817 818 819 820 822 823 824 825 827 828 827 827 828 830 832 833 834 835 836 836 836 836 836 836 836 836 837 838 838 837 836 836 837 838 839 839 839 839 838 838 838 838 838 838 838 838 838 838 837 837 837 837 837 837 837 836 836 836 836 836 835 835 834 834 833 833 833 833 833 829 827 829 829 828
797 796 797 799 803 807 810 813 815 815 816 817 819 820 821 823 824 825 825 827 828 828 828 829 830 831 833 834 835 836 836 837 837 836 836 836 836 837 838 838 838 837 836 837 838 839 839 839 839 839 838 838 838 838 838 838 838 838 838 837 837 837 837 837 836 836 836 835 835 835 834 834 833 833 832 832 832 832 832 831 828 826 827 828 827
800 801 801 801 804 807 810 813 815 816 817 819 820 821 822 824 825 826 826 827 828 829 829 829 830 832 833 834 835 836 836 837 837 837 837 837 837 837 838 838 838 837 837 837 838 839 839 839 839 839 839 839 838 838 838 838 838 838 838 837 837 836 836 836 836 836 835 834 834 833 833 832 832 831 830 830 831 830 830 830 828 827 826 826 826
802 804 804 803 804 807 810 813 815 816 818 819 821 822 823 825 826 827 827 827 828 829 830 830 831 832 833 834 835 836 837 837 837 837 837 837 837 837 838 839 839 838 837 837 838 839 839 839 839 839 839 839 838 838 838 838 838 837 837 837 836 836 836 836 835 835 834 833 833 833 832 832 831 831 830 830 830 830 829 829 828 827 826 826 825
803 805 805 805 805 807 810 813 815 817 818 820 821 823 824 825 826 827 828 828 829 829 830 831 832 833 833 834 835 836 837 838 838 838 838 838 838 838 838 839 839 838 838 838 838 839 839 839 840 840 839 839 839 839 838 838 837 837 837 836 836 836 835 835 835 834 833 833 833 832 832 832 831 830 830 829 829 829 829 829 828 827 826 825 825
803 805 806 806 807 808 810 813 815 817 819 821 822 823 824 825 826 827 828 829 829 830 830 831 832 833 834 834 835 836 837 838 838 838 838 838 838 839 839 839 840 839 839 838 839 839 839 840 840 840 840 839 839 839 838 838 837 837 836 836 835 835 835 834 834 833 833 832 832 832 832 832 831 830 830 829 829 829 829 829 828 827 826 825 825
803 805 807 808 808 809 811 813 815 817 819 821 822 824 825 826 827 827 828 829 829 830 831 831 832 833 834 835 836 837 837 838 838 838 839 839 838 839 840 840 840 840 839 839 839 840 840 840 840 840 839 839 839 839 839 838 837 837 836 835 835 835 835 834 834 833 833 832 832 832 832 832 832 831 830 830 830 829 829 828 828 827 825 825 825
803 805 806 808 809 810 811 812 814 817 819 821 822 824 825 826 827 827 828 828 829 830 831 831 832 833 834 835 836 837 838 838 838 839 839 840 840 840 840 841 841 840 840 839 840 840 840 840 840 840 839 839 839 839 839 839 838 837 836 836 835 835 835 835 834 834 833 833 833 833 833 833 832 831 831 830 830 830 829 828 827 826 825 825 824
802 804 806 807 809 810 811 812 814 816 818 820 822 824 825 826 827 827 827 828 829 830 830 831 832 833 834 835 836 837 838 838 839 839 840 840 841 841 841 841 841 840 840 840 840 840 840 840 840 840 839 839 839 840 840 839 838 837 836 836 836 836 836 836 835 835 834 834 834 833 833 833 832 832 831 830 830 830 829 829 828 827 826 825 824
801 803 805 807 809 810 811 812 813 815 818 820 822 823 825 826 826 826 827 827 829 830 831 831 832 833 835 835 836 837 838 839 839 840 841 841 841 841 841 841 841 841 840 840 840 839 840 840 839 839 839 838 839 839 840 839 838 837 837 837 837 837 836 836 836 835 835 834 834 834 834 833 833 832 832 831 830 830 830 829 828 827 826 825 824
800 803 805 807 808 809 811 812 813 815 817 819 821 823 824 825 826 826 827 827 829 830 831 832 832 833 834 835 836 837 838 839 840 841 841 841 842 842 842 842 841 841 840 840 839 839 839 839 839 838 838 838 838 839 839 839 838 837 837 837 837 837 837 837 836 836 835 834 834 835 835 834 834 833 832 831 830 830 830 829 829 828 827 825 824
800 802 804 806 808 809 810 812 813 815 816 818 820 822 824 824 826 826 827 828 829 830 831 832 833 834 835 835 837 837 838 840 841 842 842 842 842 842 842 842 841 841 840 839 839 839 839 838 838 838 838 837 837 838 838 838 838 837 837 837 838 837 837 837 836 836 835 835 835 835 836 835 835 834 833 832 831 830 830 829 829 828 827 826 825
800 802 803 805 807 808 810 812 813 815 817 818 820 821 823 824 825 826 827 828 829 831 832 833 833 834 835 836 837 838 839 840 841 842 843 843 843 843 843 842 842 841 840 840 839 839 839 838 838 838 837 837 838 838 837 837 837 837 838 838 838 838 838 837 837 836 836 836 837 837 837 836 836 835 834 833 832 831 830 830 829 828 827 826 825
800 801 802 804 806 807 809 811 813 816 817 818 819 821 822 824 825 826 828 829 830 831 832 833 834 835 836 836 837 838 840 841 842 843 843 843 843 844 843 843 842 841 841 840 839 839 839 838 838 838 838 838 838 837 837 836 837 837 838 838 838 838 838 838 837 837 837 838 838 838 838 837 836 836 835 834 833 832 831 830 830 829 828 827 825
799 800 801 802 804 806 808 810 812 815 817 817 818 820 821 823 825 826 828 829 830 831 833 834 835 836 836 837 838 839 840 841 842 843 843 844 844 844 844 844 843 842 841 840 839 839 838 838 838 838 838 838 838 837 836 836 836 837 838 838 839 838 838 838 838 839 839 839 839 839 838 838 837 837 836 835 834 833 832 831 831 830 828 827 825
797 798 800 802 804 806 808 809 811 814 816 817 818 819 821 822 824 826 827 829 831 831 833 835 836 837 837 838 838 839 841 842 842 843 844 844 844 845 845 844 844 843 841 840 839 839 838 838 838 838 838 837 837 836 836 835 835 836 837 838 839 839 839 839 839 840 841 841 841 840 839 839 838 838 838 836 835 834 833 833 832 830 829 828 826
796 797 799 801 803 805 808 809 811 814 816 817 818 819 821 822 823 825 827 829 831 832 833 835 836 837 838 839 839 840 841 842 842 843 844 844 845 845 845 845 844 843 842 840 840 839 838 838 838 838 838 837 837 837 836 835 835 836 836 838 839 840 839 839 840 841 842 842 841 841 840 840 840 840 839 838 837 836 835 834 833 831 830 829 827
797 798 799 801 802 804 806 809 811 813 816 817 819 820 821 823 824 826 827 828 830 832 833 835 837 837 839 840 840 841 841 842 842 843 843 844 845 845 845 845 844 843 842 841 840 839 839 839 838 838 837 836 837 837 837 836 836 836 837 839 840 840 840 841 842 843 843 843 842 842 842 841 841 841 840 839 838 838 837 836 834 833 831 829 828
797 798 799 800 802 804 806 809 811 814 816 818 819 820 821 823 825 827 828 829 831 832 834 836 837 838 839 840 841 841 841 842 842 843 843 844 845 846 845 845 844 844 843 842 841 840 840 839 838 838 837 836 837 838 839 839 838 838 838 839 840 841 845 846 843 842 843 843 843 843 843 843 842 842 841 840 840 839 838 837 836 834 832 830 829
796 796 798 800 802 804 807 810 813 815 817 818 819 819 821 822 824 825 826 828 830 832 834 836 837 839 839 840 841 841 842 842 843 843 844 845 845 845 845 845 845 844 844 843 842 841 840 839 839 838 838 838 838 839 841 842 841 840 839 840 841 843 847 846 844 843 843 843 844 844 844 844 844 843 842 841 841 840 839 838 837 835 833 831 829
795 796 798 800 803 806 809 812 815 816 817 817 818 819 820 822 823 825 825 826 829 831 834 836 837 838 839 840 841 841 842 842 843 844 845 845 845 845 845 845 845 845 845 844 842 842 841 840 840 840 839 840 839 839 842 843 842 842 843 843 843 845 846 845 846 846 845 845 844 845 845 845 845 844 844 843 842 842 840 839 838 836 834 832 830
794 796 799 801 804 807 810 813 815 816 817 817 818 819 820 822 823 825 826 827 829 831 834 836 837 838 839 840 840 841 842 843 844 845 846 846 846 846 845 845 845 846 846 845 844 843 842 842 842 841 841 841 841 840 842 842 842 844 845 844 845 846 846 846 847 848 849 848 845 845 845 845 846 846 845 844 844 843 841 840 839 837 835 833 831
794 796 799 801 804 808 809 811 813 815 816 817 818 819 820 822 823 824 825 828 830 832 834 836 837 838 838 839 840 841 843 844 846 847 847 847 847 846 846 846 846 847 847 846 845 844 844 844 843 843 842 842 842 841 842 843 844 845 846 845 846 846 846 847 848 849 850 849 847 846 846 844 845 845 846 845 844 843 842 840 839 838 836 834 832
795 796 799 801 804 806 806 808 812 814 816 816 817 819 820 821 823 824 825 828 830 832 834 835 837 838 838 839 841 842 844 845 847 848 848 848 848 847 847 847 848 848 848 847 846 846 845 845 844 844 843 843 843 843 844 845 845 846 846 846 847 847 847 848 849 850 851 851 851 850 849 847 846 845 845 845 844 843 842 841 839 838 836 834 833
794 796 798 800 803 805 806 809 812 814 815 817 818 819 820 821 823 825 826 828 830 831 833 835 836 837 838 839 841 843 844 846 847 848 849 849 848 848 848 849 849 849 849 848 847 847 847 846 846 846 845 845 845 846 846 847 847 847 848 848 849 850 851 852 853 853 853 854 854 853 851 849 847 846 845 844 844 843 842 841 839 838 836 834 833